This is the latest recevied weather packets stored in our database for station/object AG7BI. If no packets are shown the sender has not sent any weather packets the latest 10 day(s).
| Time | Temp. | Humidity | Pressure | Rain* | Wind** | Luminosity | Snow |
|---|---|---|---|---|---|---|---|
| 1777094747 | 8.89° C | 50% | 1016.1 hPa | 0 mm | - | - | - |
| 1777094447 | 8.89° C | 52% | 1015.7 hPa | 0 mm | - | - | - |
| 1777094147 | 9.44° C | 53% | 1015.6 hPa | 0 mm | - | - | - |
| 1777093847 | 9.44° C | 55% | 1015.7 hPa | 0 mm | - | - | - |
| 1777093547 | 10° C | 50% | 1015.9 hPa | 0 mm | - | - | - |
| 1777093247 | 10° C | 46% | 1016 hPa | 0 mm | - | - | - |
| 1777092947 | 10° C | 46% | 1016 hPa | 0 mm | - | - | - |
| 1777092647 | 10° C | 46% | 1016 hPa | 0 mm | - | - | - |
| 1777092347 | 10° C | 47% | 1016 hPa | 0 mm | - | - | - |
| 1777092047 | 10° C | 42% | 1015.8 hPa | 0 mm | - | - | - |
| 1777091747 | 10° C | 44% | 1015.8 hPa | 0 mm | - | - | - |
| 1777091447 | 10.56° C | 46% | 1016 hPa | 0 mm | - | - | - |
| 1777091147 | 10.56° C | 44% | 1015.7 hPa | 0 mm | - | - | - |
| 1777090847 | 10.56° C | 42% | 1015.8 hPa | 0 mm | - | - | - |
| 1777090547 | 10.56° C | 44% | 1015.7 hPa | 0 mm | - | - | - |
| 1777090247 | 10.56° C | 41% | 1016.1 hPa | 0 mm | - | - | - |
| 1777089947 | 10.56° C | 40% | 1015.8 hPa | 0 mm | - | - | - |
| 1777089647 | 11.11° C | 43% | 1015.8 hPa | 0 mm | - | - | - |
| 1777089347 | 11.11° C | 40% | 1015.7 hPa | 0 mm | - | - | - |
| 1777089047 | 11.11° C | 40% | 1015.8 hPa | 0 mm | - | - | - |
| 1777088747 | 11.67° C | 39% | 1015.6 hPa | 0 mm | - | - | - |
| 1777088447 | 11.67° C | 38% | 1015.8 hPa | 0 mm | - | - | - |
| 1777088147 | 11.11° C | 39% | 1015.7 hPa | 0 mm | - | - | - |
| 1777087847 | 11.67° C | 39% | 1015.8 hPa | 0 mm | - | - | - |
| 1777087547 | 11.67° C | 41% | 1015.6 hPa | 0 mm | - | - | - |
* Rain latest hour (hover to see other rain measurements)
** Current wind speed in m/s (hover to see current wind gust speed)